CZ-6A DEB, 54339

Orbit data source: Space-Track

CZ-6A DEB, 54339 is space debris in SSO originally from a launch on Fri, 11 Nov 2022 UTC launched from the Taiyaun Space Center, China (TSC). Debris objects in space refer to the collection of defunct objects orbiting the Earth. Examples of debris include non-operational satellites, rocket bodies, and fragments generated from explosions, collisions, or faulty payload assembly.

Loading next visibility...
Identifier
54339, 2022-151CJ
Orbit
SSO
Country
Flag of CNCN / PRC
Related business
Manufacturer
SAST
Mission
Spacecraft
Bus & Motor
Unknown
Mass
Unknown
Launch date (UTC)
2022-11-11 (3 years ago)
Launch vehicle
Unknown
Launch site
Taiyaun Space Center, China (TSC)
Object type
Payload
Rocket body
Debris
Shape & HBR
Unknown shape, 0.2 m
Radar Cross Section
Small (<0.1 m²)

Expand to show TLE details & history
Last TLE update: 19 hours ago

TLE from 19 hours ago
0 CZ-6A DEB
1 54339U 22151CJ  25349.93297774  .00000405  00000-0  24743-3 0  9998
2 54339  98.8277 348.6763 0042896 137.1610 223.2917 14.11038014158735
Epoch: 2025-12-15T22:23Z
TLE epoch observation values (Epoch: 2025-12-15T22:23:29.276Z)
Latitude
0.00001°
Longitude
-72.02012°
Altitude
881.374 km
Speed
7.4 km/s
True Right ascension
23h 14m 42s
True Declination
0° 00' 00"
Sunlit
Object was in daylight at epoch
Visualization orbit readout
Latitude
Unknown
Longitude
Unknown
Altitude
Unknown
Speed
Unknown
Apparent Right ascension
Unknown
Apparent Declination
Unknown
Sunlit
N/A
Visualization observer readout
Local Sidereal Time
15:43:03
Azimuth
Unknown
Elevation
Unknown
Doppler factor
Unknown
Orbital elements
Apogee altitude
884.017 km
Perigee altitude
821.979 km
Semi-major axis
7,231.135 km
Eccentricity
0.00429
Inclination
98.8277°
RAAN
348.6763°
Arg. of periapsis
137.161°
True anomaly
222.95595°
Mean anomaly
223.2917°
Eccentric anomaly
223.12369°
Mean motion
3.52966 °/min
Orbital period
101.99 mins
BSTAR
0.00024743
Loading maneuver chart data...
Computing Atmospheric mass density...
Loading historical data...
Loading historical data...
Loading historical data...
Loading historical data...
Loading historical data...
Loading historical data...
Loading historical data...

Documentation

Showing up to 5 results
|